This is the latest recevied weather packets stored in our database for station/object W0VI. If no packets are shown the sender has not sent any weather packets the latest 10 day(s).
| Time | Temp. | Humidity | Pressure | Rain* | Wind** | Luminosity | Snow |
|---|---|---|---|---|---|---|---|
| 1778052546 | 0° C | 72% | 1014.3 hPa | 0 mm | - | 0 W/m² | - |
| 1778052243 | 0° C | 71% | 1014.1 hPa | 0 mm | - | 0 W/m² | - |
| 1778051941 | 0° C | 71% | 1014.2 hPa | 0 mm | - | 0 W/m² | - |
| 1778051639 | 0° C | 70% | 1014.2 hPa | 0 mm | - | 0 W/m² | - |
| 1778051335 | 0° C | 70% | 1014.3 hPa | 0 mm | - | 0 W/m² | - |
| 1778051032 | 0° C | 69% | 1014.4 hPa | 0 mm | - | 0 W/m² | - |
| 1778050729 | 0.56° C | 69% | 1014.6 hPa | 0 mm | - | 0 W/m² | - |
| 1778050427 | 0.56° C | 67% | 1014.7 hPa | 0 mm | - | 0 W/m² | - |
| 1778050124 | 0.56° C | 67% | 1014.3 hPa | 0 mm | - | 0 W/m² | - |
| 1778049819 | 1.11° C | 66% | 1014.4 hPa | 0 mm | - | 0 W/m² | - |
| 1778049516 | 1.11° C | 66% | 1014.7 hPa | 0 mm | - | 0 W/m² | - |
| 1778049214 | 1.67° C | 65% | 1014.4 hPa | 0 mm | - | 0 W/m² | - |
| 1778048912 | 1.67° C | 65% | 1014.5 hPa | 0 mm | - | 0 W/m² | - |
| 1778048609 | 1.67° C | 65% | 1014.4 hPa | 0 mm | - | 0 W/m² | - |
| 1778048305 | 1.67° C | 64% | 1014.5 hPa | 0 mm | - | 0 W/m² | - |
| 1778048002 | 1.67° C | 64% | 1014.5 hPa | 0 mm | - | 0 W/m² | - |
| 1778047700 | 1.67° C | 63% | 1014.6 hPa | 0 mm | - | 0 W/m² | - |
| 1778047398 | 1.67° C | 64% | 1014.8 hPa | 0 mm | - | 0 W/m² | - |
| 1778047094 | 1.67° C | 63% | 1014.6 hPa | 0 mm | - | 0 W/m² | - |
| 1778046792 | 2.22° C | 62% | 1014.6 hPa | 0 mm | - | 0 W/m² | - |
| 1778046489 | 2.22° C | 61% | 1014.4 hPa | 0 mm | - | 0 W/m² | - |
| 1778046185 | 2.22° C | 61% | 1014.4 hPa | 0 mm | - | 0 W/m² | - |
| 1778045882 | 2.22° C | 60% | 1014.5 hPa | 0 mm | - | 0 W/m² | - |
| 1778045581 | 2.78° C | 61% | 1014.4 hPa | 0 mm | - | 0 W/m² | - |
| 1778045278 | 2.78° C | 60% | 1014.5 hPa | 0 mm | - | 0 W/m² | - |
* Rain latest hour (hover to see other rain measurements)
** Current wind speed in m/s (hover to see current wind gust speed)